Year,Month,Day,Hour,Minute,Value (Times are PST for temperature in C)
2015,11,17,00,00,6.00
2015,11,17,00,01,6.10
2015,11,17,00,02,6.10
2015,11,17,00,03,6.10
2015,11,17,00,04,6.10
2015,11,17,00,05,6.10
2015,11,17,00,06,6.10
2015,11,17,00,07,6.10
2015,11,17,00,08,6.10
2015,11,17,00,09,6.00
2015,11,17,00,10,6.00
2015,11,17,00,11,6.00
2015,11,17,00,12,6.00
2015,11,17,00,13,6.00
2015,11,17,00,14,6.00
2015,11,17,00,15,6.00
2015,11,17,00,16,6.00
2015,11,17,00,17,6.00
2015,11,17,00,18,6.00
2015,11,17,00,19,6.00
2015,11,17,00,20,6.00
2015,11,17,00,21,6.00
2015,11,17,00,22,6.00
2015,11,17,00,23,6.00
2015,11,17,00,24,6.00
2015,11,17,00,25,6.00
2015,11,17,00,26,6.00
2015,11,17,00,27,5.90
2015,11,17,00,28,6.00
2015,11,17,00,29,6.00
2015,11,17,00,30,6.00
2015,11,17,00,31,6.00
2015,11,17,00,32,6.00
2015,11,17,00,33,6.00
2015,11,17,00,34,6.00
2015,11,17,00,35,6.00
2015,11,17,00,36,6.00
2015,11,17,00,37,6.00
2015,11,17,00,38,5.90
2015,11,17,00,39,5.90
2015,11,17,00,40,6.00
2015,11,17,00,41,5.90
2015,11,17,00,42,6.00
2015,11,17,00,43,6.00
2015,11,17,00,44,6.00
2015,11,17,00,45,6.00
2015,11,17,00,46,6.00
2015,11,17,00,47,6.00
2015,11,17,00,48,6.00
2015,11,17,00,49,5.90
2015,11,17,00,50,5.90
2015,11,17,00,51,5.90
2015,11,17,00,52,5.90
2015,11,17,00,53,5.90
2015,11,17,00,54,5.90
2015,11,17,00,55,5.90
2015,11,17,00,56,5.90
2015,11,17,00,57,5.80
2015,11,17,00,58,5.80
2015,11,17,00,59,5.80
2015,11,17,01,00,5.80
2015,11,17,01,01,5.80
2015,11,17,01,02,5.80
2015,11,17,01,03,5.80
2015,11,17,01,04,5.80
2015,11,17,01,05,5.80
2015,11,17,01,06,5.80
2015,11,17,01,07,5.80
2015,11,17,01,08,5.80
2015,11,17,01,09,5.80
2015,11,17,01,10,5.80
2015,11,17,01,11,5.80
2015,11,17,01,12,5.80
2015,11,17,01,13,5.80
2015,11,17,01,14,5.80
2015,11,17,01,15,5.80
2015,11,17,01,16,5.80
2015,11,17,01,17,5.80
2015,11,17,01,18,5.80
2015,11,17,01,19,5.80
2015,11,17,01,20,5.80
2015,11,17,01,21,5.80
2015,11,17,01,22,5.80
2015,11,17,01,23,5.80
2015,11,17,01,24,5.80
2015,11,17,01,25,5.80
2015,11,17,01,26,5.80
2015,11,17,01,27,5.80
2015,11,17,01,28,5.70
2015,11,17,01,29,5.70
2015,11,17,01,30,5.70
2015,11,17,01,31,5.70
2015,11,17,01,32,5.70
2015,11,17,01,33,5.70
2015,11,17,01,34,5.70
2015,11,17,01,35,5.70
2015,11,17,01,36,5.70
2015,11,17,01,37,5.70
2015,11,17,01,38,5.60
2015,11,17,01,39,5.60
2015,11,17,01,40,5.60
2015,11,17,01,41,5.60
2015,11,17,01,42,5.60
2015,11,17,01,43,5.60
2015,11,17,01,44,5.60
2015,11,17,01,45,5.60
2015,11,17,01,46,5.60
2015,11,17,01,47,5.60
2015,11,17,01,48,5.60
2015,11,17,01,49,5.60
2015,11,17,01,50,5.60
2015,11,17,01,51,5.60
2015,11,17,01,52,5.60
2015,11,17,01,53,5.60
2015,11,17,01,54,5.60
2015,11,17,01,55,5.60
2015,11,17,01,56,5.60
2015,11,17,01,57,5.60
2015,11,17,01,58,5.60
2015,11,17,01,59,5.60
2015,11,17,02,00,5.60
2015,11,17,02,01,5.70
2015,11,17,02,02,5.70
2015,11,17,02,03,5.70
2015,11,17,02,04,5.70
2015,11,17,02,05,5.70
2015,11,17,02,06,5.70
2015,11,17,02,07,5.70
2015,11,17,02,08,5.70
2015,11,17,02,09,5.70
2015,11,17,02,10,5.70
2015,11,17,02,11,5.70
2015,11,17,02,12,5.80
2015,11,17,02,13,5.80
2015,11,17,02,14,5.80
2015,11,17,02,15,5.80
2015,11,17,02,16,5.80
2015,11,17,02,17,5.80
2015,11,17,02,18,5.80
2015,11,17,02,19,5.90
2015,11,17,02,20,5.90
2015,11,17,02,21,5.90
2015,11,17,02,22,5.90
2015,11,17,02,23,5.90
2015,11,17,02,24,5.90
2015,11,17,02,25,5.90
2015,11,17,02,26,5.90
2015,11,17,02,27,5.90
2015,11,17,02,28,5.90
2015,11,17,02,29,5.90
2015,11,17,02,30,5.90
2015,11,17,02,31,5.90
2015,11,17,02,32,5.90
2015,11,17,02,33,5.90
2015,11,17,02,34,5.90
2015,11,17,02,35,5.90
2015,11,17,02,36,5.90
2015,11,17,02,37,5.90
2015,11,17,02,38,5.90
2015,11,17,02,39,5.90
2015,11,17,02,40,5.90
2015,11,17,02,41,5.90
2015,11,17,02,42,5.90
2015,11,17,02,43,5.90
2015,11,17,02,44,5.90
2015,11,17,02,45,5.90
2015,11,17,02,46,5.90
2015,11,17,02,47,5.90
2015,11,17,02,48,5.90
2015,11,17,02,49,5.90
2015,11,17,02,50,5.90
2015,11,17,02,51,5.90
2015,11,17,02,52,5.90
2015,11,17,02,53,5.90
2015,11,17,02,54,5.90
2015,11,17,02,55,5.90
2015,11,17,02,56,5.90
2015,11,17,02,57,5.90
2015,11,17,02,58,5.90
2015,11,17,02,59,5.90
2015,11,17,03,00,5.90
2015,11,17,03,01,5.90
2015,11,17,03,02,5.90
2015,11,17,10,03,5.90
2015,11,17,10,04,6.00
2015,11,17,10,05,6.00
2015,11,17,10,06,6.00
2015,11,17,10,07,6.00
2015,11,17,10,08,6.00
2015,11,17,10,09,6.00
2015,11,17,10,10,6.00
2015,11,17,10,11,6.10
2015,11,17,10,12,6.10
2015,11,17,10,13,6.10
2015,11,17,10,14,6.10
2015,11,17,10,15,6.10
2015,11,17,10,16,6.10
2015,11,17,10,17,6.10
2015,11,17,10,18,6.10
2015,11,17,10,19,6.10
2015,11,17,10,20,6.10
2015,11,17,10,21,6.10
2015,11,17,10,22,6.20
2015,11,17,10,23,6.20
2015,11,17,10,24,6.20
2015,11,17,10,25,6.20
2015,11,17,10,26,6.20
2015,11,17,10,27,6.20
2015,11,17,10,28,6.20
2015,11,17,10,29,6.20
2015,11,17,10,30,6.20
2015,11,17,10,31,6.20
2015,11,17,10,32,6.20
2015,11,17,10,33,6.20
2015,11,17,10,34,6.30
2015,11,17,10,35,6.30
2015,11,17,10,36,6.30
2015,11,17,10,37,6.30
2015,11,17,10,38,6.30
2015,11,17,10,39,6.30
2015,11,17,10,40,6.30
2015,11,17,10,41,6.30
2015,11,17,10,42,6.30
2015,11,17,10,43,6.30
2015,11,17,10,44,6.30
2015,11,17,10,45,6.30
2015,11,17,10,46,6.40
2015,11,17,10,47,6.40
2015,11,17,10,48,6.40
2015,11,17,10,49,6.40
2015,11,17,10,50,6.40
2015,11,17,10,51,6.40
2015,11,17,10,52,6.40
2015,11,17,10,53,6.50
2015,11,17,10,54,6.50
2015,11,17,10,55,6.50
2015,11,17,10,56,6.50
2015,11,17,10,57,6.60
2015,11,17,10,58,6.60
2015,11,17,10,59,6.60
2015,11,17,11,00,6.60
2015,11,17,11,01,6.60
2015,11,17,11,02,6.70
2015,11,17,11,03,6.70
2015,11,17,11,04,6.70
2015,11,17,11,05,6.80
2015,11,17,11,06,6.80
2015,11,17,11,07,6.80
2015,11,17,11,08,6.80
2015,11,17,11,09,6.80
2015,11,17,11,10,6.80
2015,11,17,11,11,6.80
2015,11,17,11,12,6.80
2015,11,17,11,13,6.80
2015,11,17,11,14,6.80
2015,11,17,11,15,6.80
2015,11,17,11,16,6.80
2015,11,17,11,17,6.80
2015,11,17,11,18,6.90
2015,11,17,11,19,6.90
2015,11,17,11,20,6.90
2015,11,17,11,21,6.90
2015,11,17,11,22,6.90
2015,11,17,11,23,6.90
2015,11,17,11,24,6.90
2015,11,17,11,25,7.00
2015,11,17,11,26,7.00
2015,11,17,11,27,7.00
2015,11,17,11,28,7.10
2015,11,17,11,29,7.10
2015,11,17,11,30,7.10
2015,11,17,11,31,7.10
2015,11,17,11,32,7.10
2015,11,17,11,33,7.10
2015,11,17,11,34,7.10
2015,11,17,11,35,7.10
2015,11,17,11,36,7.10
2015,11,17,11,37,7.10
2015,11,17,11,38,7.10
2015,11,17,11,39,7.10
2015,11,17,11,40,7.10
2015,11,17,11,41,7.10
2015,11,17,11,42,7.20
2015,11,17,11,43,7.20
2015,11,17,11,44,7.20
2015,11,17,11,45,7.20
2015,11,17,11,46,7.20
2015,11,17,11,47,7.20
2015,11,17,11,48,7.20
2015,11,17,11,49,7.10
2015,11,17,11,50,7.10
2015,11,17,11,51,7.10
2015,11,17,11,52,7.10
2015,11,17,11,53,7.10
2015,11,17,11,54,7.10
2015,11,17,11,55,7.10
2015,11,17,11,56,7.10
2015,11,17,11,57,7.10
2015,11,17,11,58,7.10
2015,11,17,11,59,7.10
2015,11,17,12,00,7.10
2015,11,17,12,01,7.10
2015,11,17,12,02,7.00
2015,11,17,12,03,7.00
2015,11,17,12,04,7.00
2015,11,17,12,05,7.00
2015,11,17,12,06,7.00
2015,11,17,12,07,7.00
2015,11,17,12,08,7.00
2015,11,17,12,09,7.00
2015,11,17,12,10,7.00
2015,11,17,12,11,7.00
2015,11,17,12,12,7.00
2015,11,17,12,13,7.00
2015,11,17,12,14,7.00
2015,11,17,12,15,7.00
2015,11,17,12,16,7.00
2015,11,17,12,17,6.90
2015,11,17,12,18,6.90
2015,11,17,12,19,6.90
2015,11,17,12,20,6.90
2015,11,17,12,21,6.90
2015,11,17,12,22,6.90
2015,11,17,12,23,6.90
2015,11,17,12,24,6.90
2015,11,17,12,25,6.90
2015,11,17,12,26,6.90
2015,11,17,12,27,6.90
2015,11,17,12,28,6.90
2015,11,17,12,29,6.90
2015,11,17,12,30,6.90
2015,11,17,12,31,6.90
2015,11,17,12,32,6.90
2015,11,17,12,33,6.90
2015,11,17,12,34,6.90
2015,11,17,12,35,6.90
2015,11,17,12,36,6.90
2015,11,17,12,37,6.90
2015,11,17,12,38,7.00
2015,11,17,12,39,7.00
2015,11,17,12,40,7.00
2015,11,17,12,41,7.10
2015,11,17,12,42,7.10
2015,11,17,12,43,7.10
2015,11,17,12,44,7.10
2015,11,17,12,45,7.10
2015,11,17,12,46,7.10
2015,11,17,12,47,7.10
2015,11,17,12,48,7.10
2015,11,17,12,49,7.10
2015,11,17,12,50,7.10
2015,11,17,12,51,7.10
2015,11,17,12,52,7.10
2015,11,17,12,53,7.00
2015,11,17,12,54,7.00
2015,11,17,12,55,7.00
2015,11,17,12,56,7.00
2015,11,17,12,57,7.00
2015,11,17,12,58,7.00
2015,11,17,12,59,7.00
2015,11,17,13,00,7.00
2015,11,17,13,01,7.00
2015,11,17,13,02,7.00
2015,11,17,13,03,7.00
2015,11,17,13,04,7.00
2015,11,17,13,05,7.10
2015,11,17,13,06,7.10
2015,11,17,13,07,7.10
2015,11,17,13,08,7.10
2015,11,17,13,09,7.10
2015,11,17,13,10,7.10
2015,11,17,13,11,7.10
2015,11,17,13,12,7.10
2015,11,17,13,13,7.10
2015,11,17,13,14,7.10
2015,11,17,13,15,7.10
2015,11,17,13,16,7.10
2015,11,17,13,17,7.10
2015,11,17,13,18,7.10
2015,11,17,13,19,7.10
2015,11,17,13,20,7.10
2015,11,17,13,21,7.10
2015,11,17,13,22,7.10
2015,11,17,13,23,7.10
2015,11,17,13,24,7.10
2015,11,17,13,25,7.10
2015,11,17,13,26,7.10
2015,11,17,13,27,7.10
2015,11,17,13,28,7.10
2015,11,17,13,29,7.10
2015,11,17,13,30,7.10
2015,11,17,13,31,7.10
2015,11,17,13,32,7.10
2015,11,17,13,33,7.10
2015,11,17,13,34,7.00
2015,11,17,13,35,7.00
2015,11,17,13,36,6.90
2015,11,17,13,37,6.90
2015,11,17,13,38,6.90
2015,11,17,13,39,6.90
2015,11,17,13,40,6.90
2015,11,17,13,41,6.90
2015,11,17,13,42,6.90
2015,11,17,13,43,6.90
2015,11,17,13,44,6.90
2015,11,17,13,45,6.90
2015,11,17,13,46,6.90
2015,11,17,13,47,6.90
2015,11,17,13,48,6.90
2015,11,17,13,49,6.80
2015,11,17,13,50,6.80
2015,11,17,13,51,6.90
2015,11,17,13,52,6.90
2015,11,17,13,53,6.90
2015,11,17,13,54,6.90
2015,11,17,13,55,7.00
2015,11,17,13,56,7.00
2015,11,17,13,57,7.00
2015,11,17,13,58,7.00
2015,11,17,13,59,7.00
2015,11,17,14,00,7.10
2015,11,17,14,01,7.10
2015,11,17,14,02,7.10
2015,11,17,14,03,7.10
2015,11,17,14,04,7.10
2015,11,17,14,05,7.10
2015,11,17,14,06,7.10
2015,11,17,14,07,7.10
2015,11,17,14,08,7.10
2015,11,17,14,09,7.20
2015,11,17,14,10,7.20
2015,11,17,14,11,7.20
2015,11,17,14,12,7.20
2015,11,17,14,13,7.20
2015,11,17,14,14,7.20
2015,11,17,14,15,7.20
2015,11,17,14,16,7.20
2015,11,17,14,17,7.20
2015,11,17,14,18,7.20
2015,11,17,14,19,7.20
2015,11,17,14,20,7.20
2015,11,17,14,21,7.20
2015,11,17,14,22,7.20
2015,11,17,14,23,7.20
2015,11,17,14,24,7.20
2015,11,17,14,25,7.20
2015,11,17,14,26,7.20
2015,11,17,14,27,7.20
2015,11,17,14,28,7.20
2015,11,17,14,29,7.10
2015,11,17,14,30,7.10
2015,11,17,14,31,7.10
2015,11,17,14,32,7.10
2015,11,17,14,33,7.20
2015,11,17,14,34,7.20
2015,11,17,14,35,7.20
2015,11,17,14,36,7.20
2015,11,17,14,37,7.20
2015,11,17,14,38,7.10
2015,11,17,14,39,7.10
2015,11,17,14,40,7.10
2015,11,17,14,41,7.10
2015,11,17,14,42,7.10
2015,11,17,14,43,7.20
2015,11,17,14,44,7.20
2015,11,17,14,45,7.20
2015,11,17,14,46,7.20
2015,11,17,14,47,7.20
2015,11,17,14,48,7.20
2015,11,17,14,49,7.10
2015,11,17,14,50,7.10
2015,11,17,14,51,7.10
2015,11,17,14,52,7.10
2015,11,17,14,53,7.00
2015,11,17,14,54,7.00
2015,11,17,14,55,7.00
2015,11,17,14,56,6.90
2015,11,17,14,57,6.90
2015,11,17,14,58,6.80
2015,11,17,14,59,6.80
2015,11,17,15,00,6.80
2015,11,17,15,01,6.70
2015,11,17,15,02,6.60
2015,11,17,15,03,6.50
2015,11,17,15,04,6.40
2015,11,17,15,05,6.30
2015,11,17,15,06,6.30
2015,11,17,15,07,6.20
2015,11,17,15,08,6.20
2015,11,17,15,09,6.10
2015,11,17,15,10,6.10
2015,11,17,15,11,6.00
2015,11,17,15,12,5.90
2015,11,17,15,13,5.80
2015,11,17,15,14,5.80
2015,11,17,15,15,5.80
2015,11,17,15,16,5.70
2015,11,17,15,17,5.60
2015,11,17,15,18,5.60
2015,11,17,15,19,5.60
2015,11,17,15,20,5.50
2015,11,17,15,21,5.50
2015,11,17,15,22,5.40
2015,11,17,15,23,5.40
2015,11,17,15,24,5.40
2015,11,17,15,25,5.40
2015,11,17,15,26,5.40
2015,11,17,15,27,5.40
2015,11,17,15,28,5.30
2015,11,17,15,29,5.30
2015,11,17,15,30,5.30
2015,11,17,15,31,5.30
2015,11,17,15,32,5.30
2015,11,17,15,33,5.30
2015,11,17,15,34,5.30
2015,11,17,15,35,5.30
2015,11,17,15,36,5.40
2015,11,17,15,37,5.40
2015,11,17,15,38,5.40
2015,11,17,15,39,5.40
2015,11,17,15,40,5.40
2015,11,17,15,41,5.40
2015,11,17,15,42,5.40
2015,11,17,15,43,5.50
2015,11,17,15,44,5.50
2015,11,17,15,45,5.50
2015,11,17,15,46,5.50
2015,11,17,15,47,5.50
2015,11,17,15,48,5.50
2015,11,17,15,49,5.40
2015,11,17,15,50,5.40
2015,11,17,15,51,5.40
2015,11,17,15,52,5.40
2015,11,17,15,53,5.40
2015,11,17,15,54,5.40
2015,11,17,15,55,5.40
2015,11,17,15,56,5.30
2015,11,17,15,57,5.30
2015,11,17,15,58,5.30
2015,11,17,15,59,5.20
2015,11,17,16,00,5.20
2015,11,17,16,01,5.10
2015,11,17,16,02,5.10
2015,11,17,16,03,5.10
2015,11,17,16,04,5.10
2015,11,17,16,05,5.00
2015,11,17,16,06,4.90
2015,11,17,16,07,4.90
2015,11,17,16,08,4.90
2015,11,17,16,09,4.80
2015,11,17,16,10,4.80
2015,11,17,16,11,4.80
2015,11,17,16,12,4.80
2015,11,17,16,13,4.80
2015,11,17,16,14,4.80
2015,11,17,16,15,4.70
2015,11,17,16,16,4.70
2015,11,17,16,17,4.70
2015,11,17,16,18,4.70
2015,11,17,16,19,4.70
2015,11,17,16,20,4.60
2015,11,17,16,21,4.60
2015,11,17,16,22,4.60
2015,11,17,16,23,4.60
2015,11,17,16,24,4.60
2015,11,17,16,25,4.60
2015,11,17,16,26,4.50
2015,11,17,16,27,4.50
2015,11,17,16,28,4.50
2015,11,17,16,29,4.50
2015,11,17,16,30,4.50
2015,11,17,16,31,4.50
2015,11,17,16,32,4.40
2015,11,17,16,33,4.40
2015,11,17,16,34,4.40
2015,11,17,16,35,4.40
2015,11,17,16,36,4.40
2015,11,17,16,37,4.40
2015,11,17,16,38,4.40
2015,11,17,16,39,4.40
2015,11,17,16,40,4.40
2015,11,17,16,41,4.30
2015,11,17,16,42,4.30
2015,11,17,16,43,4.30
2015,11,17,16,44,4.30
2015,11,17,16,45,4.20
2015,11,17,16,46,4.20
2015,11,17,16,47,4.20
2015,11,17,16,48,4.20
2015,11,17,16,49,4.20
2015,11,17,16,50,4.20
2015,11,17,16,51,4.20
2015,11,17,16,52,4.10
2015,11,17,16,53,4.10
2015,11,17,16,54,4.00
2015,11,17,16,55,4.00
2015,11,17,16,56,3.90
2015,11,17,16,57,3.90
2015,11,17,16,58,3.90
2015,11,17,16,59,3.90
2015,11,17,17,00,3.90
2015,11,17,17,01,3.90
2015,11,17,17,02,3.90
2015,11,17,17,03,3.90
2015,11,17,17,04,3.90
2015,11,17,17,05,3.90
2015,11,17,17,06,3.90
2015,11,17,17,07,3.90
2015,11,17,17,08,3.90
2015,11,17,17,09,3.90
2015,11,17,17,10,3.90
2015,11,17,17,11,3.90
2015,11,17,17,12,3.80
2015,11,17,17,13,3.80
2015,11,17,17,14,3.70
2015,11,17,17,15,3.60
2015,11,17,17,16,3.50
2015,11,17,17,17,3.50
2015,11,17,17,18,3.40
2015,11,17,17,19,3.30
2015,11,17,17,20,3.30
2015,11,17,17,21,3.30
2015,11,17,17,22,3.20
2015,11,17,17,23,3.20
2015,11,17,17,24,3.20
2015,11,17,17,25,3.20
2015,11,17,17,26,3.10
2015,11,17,17,27,3.10
2015,11,17,17,28,3.10
2015,11,17,17,29,3.10
2015,11,17,17,30,3.10
2015,11,17,17,31,3.10
2015,11,17,17,32,3.10
2015,11,17,17,33,3.10
2015,11,17,17,34,3.10
2015,11,17,17,35,3.00
2015,11,17,17,36,3.00
2015,11,17,17,37,3.00
2015,11,17,17,38,3.00
2015,11,17,17,39,3.00
2015,11,17,17,40,3.00
2015,11,17,17,41,3.00
2015,11,17,17,42,3.00
2015,11,17,17,43,3.00
2015,11,17,17,44,3.00
2015,11,17,17,45,3.00
2015,11,17,17,46,3.00
2015,11,17,17,47,3.00
2015,11,17,17,48,3.10
2015,11,17,17,49,3.00
2015,11,17,17,50,3.00
2015,11,17,17,51,2.90
2015,11,17,17,52,2.90
2015,11,17,17,53,2.80
2015,11,17,17,54,2.70
2015,11,17,17,55,2.60
2015,11,17,17,56,2.50
2015,11,17,17,57,2.40
2015,11,17,17,58,2.40
2015,11,17,17,59,2.30
2015,11,17,18,00,2.30
2015,11,17,18,01,2.30
2015,11,17,18,02,2.20
2015,11,17,18,03,2.20
2015,11,17,18,04,2.20
2015,11,17,18,05,2.20
2015,11,17,18,06,2.10
2015,11,17,18,07,2.10
2015,11,17,18,08,2.10
2015,11,17,18,09,2.10
2015,11,17,18,10,2.00
2015,11,17,18,11,2.00
2015,11,17,18,12,1.90
2015,11,17,18,13,1.90
2015,11,17,18,14,1.90
2015,11,17,18,15,1.90
2015,11,17,18,16,2.00
2015,11,17,18,17,2.00
2015,11,17,18,18,2.00
2015,11,17,18,19,2.00
2015,11,17,18,20,2.00
2015,11,17,18,21,2.00
2015,11,17,18,22,2.00
2015,11,17,18,23,2.10
2015,11,17,18,24,2.10
2015,11,17,18,25,2.10
2015,11,17,18,26,2.10
2015,11,17,18,27,2.20
2015,11,17,18,28,2.20
2015,11,17,18,29,2.20
2015,11,17,18,30,2.20
2015,11,17,18,31,2.20
2015,11,17,18,32,2.20
2015,11,17,18,33,2.20
2015,11,17,18,34,2.20
2015,11,17,18,35,2.20
2015,11,17,18,36,2.20
2015,11,17,18,37,2.20
2015,11,17,18,38,2.20
2015,11,17,18,39,2.10
2015,11,17,18,40,2.10
2015,11,17,18,41,2.10
2015,11,17,18,42,2.00
2015,11,17,18,43,2.00
2015,11,17,18,44,1.90
2015,11,17,18,45,1.90
2015,11,17,18,46,1.80
2015,11,17,18,47,1.80
2015,11,17,18,48,1.80
2015,11,17,18,49,1.70
2015,11,17,18,50,1.70
2015,11,17,18,51,1.70
2015,11,17,18,52,1.70
2015,11,17,18,53,1.70
2015,11,17,18,54,1.70
2015,11,17,18,55,1.70
2015,11,17,18,56,1.70
2015,11,17,18,57,1.70
2015,11,17,18,58,1.70
2015,11,17,18,59,1.70
2015,11,17,19,00,1.70
2015,11,17,19,01,1.70
2015,11,17,19,02,1.60
2015,11,17,19,03,1.60
2015,11,17,19,04,1.60
2015,11,17,19,05,1.60
2015,11,17,19,06,1.60
2015,11,17,19,07,1.50
2015,11,17,19,08,1.50
2015,11,17,19,09,1.40
2015,11,17,19,10,1.30
2015,11,17,19,11,1.30
2015,11,17,19,12,1.30
2015,11,17,19,13,1.20
2015,11,17,19,14,1.20
2015,11,17,19,15,1.20
2015,11,17,19,16,1.10
2015,11,17,19,17,1.00
2015,11,17,19,18,1.00
2015,11,17,19,19,1.00
2015,11,17,19,20,0.90
2015,11,17,19,21,0.90
2015,11,17,19,22,0.90
2015,11,17,19,23,0.90
2015,11,17,19,24,0.90
2015,11,17,19,25,0.90
2015,11,17,19,26,0.80
2015,11,17,19,27,0.80
2015,11,17,19,28,0.70
2015,11,17,19,29,0.70
2015,11,17,19,30,0.70
2015,11,17,19,31,0.60
2015,11,17,19,32,0.60
2015,11,17,19,33,0.60
2015,11,17,19,34,0.60
2015,11,17,19,35,0.60
2015,11,17,19,36,0.60
2015,11,17,19,37,0.60
2015,11,17,19,38,0.50
2015,11,17,19,39,0.50
2015,11,17,19,40,0.50
2015,11,17,19,41,0.40
2015,11,17,19,42,0.40
2015,11,17,19,43,0.40
2015,11,17,19,44,0.40
2015,11,17,19,45,0.50
2015,11,17,19,46,0.50
2015,11,17,19,47,0.50
2015,11,17,19,48,0.50
2015,11,17,19,49,0.60
2015,11,17,19,50,0.60
2015,11,17,19,51,0.60
2015,11,17,19,52,0.70
2015,11,17,19,53,0.70
2015,11,17,19,54,0.70
2015,11,17,19,55,0.70
2015,11,17,19,56,0.70
2015,11,17,19,57,0.80
2015,11,17,19,58,0.80
2015,11,17,19,59,0.80
2015,11,17,20,00,0.80
2015,11,17,20,01,0.80
2015,11,17,20,02,0.70
2015,11,17,20,03,0.70
2015,11,17,20,04,0.70
2015,11,17,20,05,0.60
2015,11,17,20,06,0.50
2015,11,17,20,07,0.50
2015,11,17,20,08,0.50
2015,11,17,20,09,0.40
2015,11,17,20,10,0.40
2015,11,17,20,11,0.40
2015,11,17,20,12,0.30
2015,11,17,20,13,0.30
2015,11,17,20,14,0.20
2015,11,17,20,15,0.00
2015,11,17,20,16,-0.10
2015,11,17,20,17,-0.20
2015,11,17,20,18,-0.20
2015,11,17,20,19,-0.20
2015,11,17,20,20,-0.30
2015,11,17,20,21,-0.30
2015,11,17,20,22,-0.30
2015,11,17,20,23,-0.20
2015,11,17,20,24,-0.20
2015,11,17,20,25,-0.20
2015,11,17,20,26,-0.20
2015,11,17,20,27,-0.20
2015,11,17,20,28,-0.20
2015,11,17,20,29,-0.20
2015,11,17,20,30,-0.20
2015,11,17,20,31,-0.20
2015,11,17,20,32,-0.10
2015,11,17,20,33,-0.10
2015,11,17,20,34,-0.10
2015,11,17,20,35,-0.10
2015,11,17,20,36,-0.10
2015,11,17,20,37,-0.10
2015,11,17,20,38,-0.10
2015,11,17,20,39,-0.10
2015,11,17,20,40,-0.20
2015,11,17,20,41,-0.20
2015,11,17,20,42,-0.20
2015,11,17,20,43,-0.10
2015,11,17,20,44,-0.10
2015,11,17,20,45,-0.10
2015,11,17,20,46,0.00
2015,11,17,20,47,0.00
2015,11,17,20,48,-0.10
2015,11,17,20,49,-0.10
2015,11,17,20,50,-0.10
2015,11,17,20,51,-0.10
2015,11,17,20,52,-0.10
2015,11,17,20,53,-0.10
2015,11,17,20,54,-0.10
2015,11,17,20,55,-0.10
2015,11,17,20,56,-0.20
2015,11,17,20,57,-0.20
2015,11,17,20,58,-0.20
2015,11,17,20,59,-0.30
2015,11,17,21,00,-0.30
2015,11,17,21,01,-0.30
2015,11,17,21,02,-0.30
2015,11,17,21,03,-0.40
2015,11,17,21,04,-0.40
2015,11,17,21,05,-0.40
2015,11,17,21,06,-0.40
2015,11,17,21,07,-0.40
2015,11,17,21,08,-0.40
2015,11,17,21,09,-0.40
2015,11,17,21,10,-0.40
2015,11,17,21,11,-0.30
2015,11,17,21,12,-0.30
2015,11,17,21,13,-0.40
2015,11,17,21,14,-0.50
2015,11,17,21,15,-0.60
2015,11,17,21,16,-0.60
2015,11,17,21,17,-0.60
2015,11,17,21,18,-0.60
2015,11,17,21,19,-0.60
2015,11,17,21,20,-0.50
2015,11,17,21,21,-0.50
2015,11,17,21,22,-0.50
2015,11,17,21,23,-0.40
2015,11,17,21,24,-0.40
2015,11,17,21,25,-0.30
2015,11,17,21,26,-0.30
2015,11,17,21,27,-0.30
2015,11,17,21,28,-0.30
2015,11,17,21,29,-0.20
2015,11,17,21,30,-0.20
2015,11,17,21,31,-0.20
2015,11,17,21,32,-0.20
2015,11,17,21,33,-0.20
2015,11,17,21,34,-0.20
2015,11,17,21,35,-0.20
2015,11,17,21,36,-0.20
2015,11,17,21,37,-0.20
2015,11,17,21,38,-0.20
2015,11,17,21,39,-0.20
2015,11,17,21,40,-0.20
2015,11,17,21,41,-0.20
2015,11,17,21,42,-0.10
2015,11,17,21,43,-0.10
2015,11,17,21,44,-0.10
2015,11,17,21,45,-0.10
2015,11,17,21,46,-0.10
2015,11,17,21,47,-0.10
2015,11,17,21,48,-0.10
2015,11,17,21,49,-0.10
2015,11,17,21,50,-0.10
2015,11,17,21,51,-0.20
2015,11,17,21,52,-0.20
2015,11,17,21,53,-0.20
2015,11,17,21,54,-0.20
2015,11,17,21,55,-0.30
2015,11,17,21,56,-0.30
2015,11,17,21,57,-0.30
2015,11,17,21,58,-0.30
2015,11,17,21,59,-0.30
2015,11,17,22,00,-0.30
2015,11,17,22,01,-0.30
2015,11,17,22,02,-0.40
2015,11,17,22,03,-0.40
2015,11,17,22,04,-0.40
2015,11,17,22,05,-0.40
2015,11,17,22,06,-0.40
2015,11,17,22,07,-0.40
2015,11,17,22,08,-0.40
2015,11,17,22,09,-0.40
2015,11,17,22,10,-0.40
2015,11,17,22,11,-0.40
2015,11,17,22,12,-0.40
2015,11,17,22,13,-0.40
2015,11,17,22,14,-0.40
2015,11,17,22,15,-0.40
2015,11,17,22,16,-0.40
2015,11,17,22,17,-0.40
2015,11,17,22,18,-0.40
2015,11,17,22,19,-0.40
2015,11,17,22,20,-0.40
2015,11,17,22,21,-0.40
2015,11,17,22,22,-0.30
2015,11,17,22,23,-0.30
2015,11,17,22,24,-0.30
2015,11,17,22,25,-0.20
2015,11,17,22,26,0.00
2015,11,17,22,27,0.10
2015,11,17,22,28,0.20
2015,11,17,22,29,0.30
2015,11,17,22,30,0.30
2015,11,17,22,31,0.40
2015,11,17,22,32,0.50
2015,11,17,22,33,0.60
2015,11,17,22,34,0.70
2015,11,17,22,35,0.80
2015,11,17,22,36,0.90
2015,11,17,22,37,1.00
2015,11,17,22,38,1.00
2015,11,17,22,39,1.10
2015,11,17,22,40,1.10
2015,11,17,22,41,1.10
2015,11,17,22,42,1.10
2015,11,17,22,43,1.10
2015,11,17,22,44,1.10
2015,11,17,22,45,1.10
2015,11,17,22,46,1.10
2015,11,17,22,47,1.10
2015,11,17,22,48,1.10
2015,11,17,22,49,1.10
2015,11,17,22,50,1.10
2015,11,17,22,51,1.10
2015,11,17,22,52,1.10
2015,11,17,22,53,1.00
2015,11,17,22,54,1.00
2015,11,17,22,55,0.90
2015,11,17,22,56,0.90
2015,11,17,22,57,0.80
2015,11,17,22,58,0.80
2015,11,17,22,59,0.80
2015,11,17,23,00,0.80
2015,11,17,23,01,0.70
2015,11,17,23,02,0.70
2015,11,17,23,03,0.70
2015,11,17,23,04,0.60
2015,11,17,23,05,0.60
2015,11,17,23,06,0.60
2015,11,17,23,07,0.50
2015,11,17,23,08,0.40
2015,11,17,23,09,0.40
2015,11,17,23,10,0.30
2015,11,17,23,11,0.30
2015,11,17,23,12,0.30
2015,11,17,23,13,0.30
2015,11,17,23,14,0.30
2015,11,17,23,15,0.30
2015,11,17,23,16,0.30
2015,11,17,23,17,0.30
2015,11,17,23,18,0.30
2015,11,17,23,19,0.30
2015,11,17,23,20,0.30
2015,11,17,23,21,0.30
2015,11,17,23,22,0.30
2015,11,17,23,23,0.30
2015,11,17,23,24,0.30
2015,11,17,23,25,0.30
2015,11,17,23,26,0.30
2015,11,17,23,27,0.30
2015,11,17,23,28,0.30
2015,11,17,23,29,0.30
2015,11,17,23,30,0.30
2015,11,17,23,31,0.20
2015,11,17,23,32,0.20
2015,11,17,23,33,0.20
2015,11,17,23,34,0.20
2015,11,17,23,35,0.20
2015,11,17,23,36,0.20
2015,11,17,23,37,0.30
2015,11,17,23,38,0.30
2015,11,17,23,39,0.30
2015,11,17,23,40,0.30
2015,11,17,23,41,0.30
2015,11,17,23,42,0.30
2015,11,17,23,43,0.30
2015,11,17,23,44,0.20
2015,11,17,23,45,0.10
2015,11,17,23,46,-0.10
2015,11,17,23,47,-0.20
2015,11,17,23,48,-0.30
2015,11,17,23,49,-0.40
2015,11,17,23,50,-0.50
2015,11,17,23,51,-0.50
2015,11,17,23,52,-0.60
2015,11,17,23,53,-0.60
2015,11,17,23,54,-0.60
2015,11,17,23,55,-0.60
2015,11,17,23,56,-0.60
2015,11,17,23,57,-0.60
2015,11,17,23,58,-0.60
2015,11,17,23,59,-0.60
